[[{"header":{"parameterUnit":"m.s-1","parameterCategory":1,"la1":30.2991,"la2":30.254,"lo1":-89.0895,"lo2":-89.0444,"dy":0.0017,"dx":0.0017,"nx":28,"ny":28,"refTime":"2023-08-25T21:00:00:Z","depth":0,"parameterNumber":2,"parameterNumberName":"U-component_of_WINDS"},"data":[0,0,0,0,0,0,0,0,0,0,0,0,0,0,0,0,0,0,0,0,0,0,0,0,0,0,0,0,0,0,0,0,0,0,0,0,0,0,0,0,0,0,0,0,0,0,0,0,0,0,0,0,0,0,0,0,0,0,2.5432,2.5433,0,2.5552,2.5553,2.5555,2.558,2.558,2.5579,2.5578,2.5699,2.5703,2.5707,0,0,0,0,0,0,0,0,0,0,0,0,0,2.522,2.5224,2.5432,2.5433,2.5435,2.5552,2.5554,2.5555,2.5581,2.5579,2.5578,2.5577,2.5697,2.5702,2.5707,0,0,0,0,0,0,0,0,0,0,0,0,0,2.5323,2.5225,2.5431,2.5461,2.5465,2.5552,2.5554,2.5556,2.5581,2.5579,2.5578,2.5577,2.5696,2.5702,2.5708,2.5772,0,0,2.5726,2.5729,0,0,0,0,0,0,0,0,2.5317,2.5331,2.5456,2.546,2.5464,2.555,2.5523,2.5628,2.5581,2.5537,2.5578,2.5576,2.565,2.566,2.5685,2.5777,2.5783,2.5727,2.573,2.5733,2.5735,0,0,0,0,0,0,0,2.531,2.5326,2.5479,2.5457,2.5463,2.5468,2.5481,2.5543,2.5599,2.5541,2.5543,2.5557,2.5652,2.5679,2.5688,2.5784,2.5727,2.5732,2.5736,2.5738,2.5933,2.5934,0,0,0,0,0,0,2.5298,2.532,2.5475,2.5483,2.5386,2.5473,2.5487,2.5524,2.5599,2.5609,2.5558,2.5558,2.567,2.5681,2.5693,2.5771,2.5733,2.5739,2.5742,2.5931,2.5933,2.5935,0,0,0,0,0,0,2.5294,2.5312,2.5471,2.5402,2.5423,2.5478,2.5518,2.5527,2.5554,2.5612,2.5622,2.5575,2.5669,2.5684,2.5752,2.5775,2.5741,2.5747,2.5929,2.5932,2.5934,2.5928,0,0,0,0,0,0,2.5287,2.531,2.5336,2.5402,2.5426,2.5528,2.552,2.553,2.5565,2.5565,2.5631,2.5641,2.5669,2.5742,2.5758,2.5783,2.5752,2.5927,2.593,2.5933,2.5927,2.593,2.5933,0,0,0,0,0,2.528,2.5329,2.5337,2.5355,2.546,2.553,2.5543,2.5576,2.5567,2.5592,2.5629,2.5638,2.5771,2.5749,2.5766,2.5794,2.5926,2.593,2.5933,2.5925,2.593,2.5933,0,0,0,0,0,0,2.5263,2.5339,2.5348,2.5421,2.5469,2.5534,2.5567,2.558,2.563,2.5629,2.5667,2.5681,2.5746,2.5777,2.5752,2.5859,2.5848,2.5855,2.5836,2.5841,2.5844,2.5834,2.5757,0,0,0,0,0,2.5268,2.532,2.5383,2.5441,2.5464,2.5511,2.5543,2.5564,2.5615,2.5635,2.5677,2.5725,2.5778,2.5811,2.5863,2.5932,2.5945,2.5959,2.5963,2.5965,2.597,2.6007,2.6014,2.5946,2.5946,2.5946,0,0,2.5279,2.5326,2.5356,2.5438,2.5478,2.5529,2.5528,2.5583,2.5621,2.5643,2.5709,2.5742,2.5798,2.5866,2.5898,2.5894,2.5992,2.597,2.5971,2.5975,2.6011,2.6018,2.6023,2.5948,2.5948,2.5948,0,0,2.5323,2.5366,2.5418,2.5457,2.5518,2.5549,2.5561,2.5624,2.5647,2.5714,2.5731,2.5776,2.5866,2.5905,2.5936,2.5995,2.6005,2.6011,2.6027,2.6063,2.6068,2.6073,2.6092,2.6098,2.6016,2.6016,2.6016,0,2.5328,2.5407,2.5443,2.5496,2.5531,2.5554,2.5606,2.5643,2.5716,2.5739,2.5734,2.5846,2.5886,2.5962,2.5976,2.6002,2.6016,2.6003,2.6065,2.607,2.6075,2.6093,2.6101,2.6016,2.6016,2.6016,2.6016,0,2.5409,2.5464,2.5498,2.5569,2.5608,2.566,2.5702,2.5737,2.5755,2.5786,2.5853,2.5901,2.5962,2.5982,2.6,2.6061,2.6056,2.6057,2.6046,2.6081,2.6099,2.6106,2.6016,2.6016,2.6016,2.6016,0,0,2.5446,2.5536,2.5548,2.5579,2.5647,2.5689,2.5742,2.5802,2.583,2.588,2.5924,2.5999,2.6001,2.6036,2.6059,2.609,2.6131,2.6088,2.6089,2.6092,2.6198,2.6195,2.6203,2.6138,2.614,2.6141,2.6193,0,2.5498,2.5594,2.5627,2.5706,2.5755,2.5778,2.5824,2.5869,2.59,2.5945,2.5979,2.603,2.6029,2.6051,2.6083,2.6119,2.6152,2.6116,2.6178,2.618,2.6161,2.6213,2.6211,2.6257,2.62,2.6202,2.6203,0,2.5571,2.5621,2.5705,2.5766,2.5788,2.5828,2.5885,2.5929,2.5981,2.6,2.604,2.606,2.6114,2.6101,2.6176,2.6151,2.6178,2.62,2.6202,2.6208,2.6192,2.6218,2.6273,2.6279,2.6214,2.6213,2.6213,0,2.5586,2.5676,2.5737,2.5764,2.5837,2.5864,2.5896,2.5946,2.598,2.6029,2.6051,2.6106,2.6136,2.6178,2.6211,2.6199,2.6282,2.6273,2.6298,2.6297,2.6314,2.6312,2.6372,2.6334,2.6334,2.6334,2.6334,0,2.5639,2.5689,2.5745,2.5783,2.5839,2.5876,2.593,2.5962,2.6007,2.605,2.6074,2.6113,2.6156,2.6201,2.6228,2.6285,2.6298,2.6315,2.6321,2.6312,2.6309,2.6329,2.6326,2.6336,2.6336,2.6335,2.6335,0,2.5666,2.5706,2.5774,2.5837,2.5854,2.5892,2.5945,2.5982,2.6013,2.6067,2.6082,2.6131,2.6185,2.6223,2.6293,2.6311,2.6371,2.6378,2.6354,2.6356,2.6379,2.6376,2.6452,2.6463,2.642,2.6421,2.6421,0,2.5696,2.5735,2.5802,2.5833,2.5864,2.5914,2.5948,2.5986,2.602,2.6082,2.611,2.6166,2.6212,2.6298,2.6339,2.6391,2.6399,2.6422,2.6407,2.6395,2.6397,2.6393,2.6396,2.6423,2.6424,2.6424,2.6424,0,2.5744,2.5762,2.5811,2.5867,2.5907,2.5953,2.5998,2.6022,2.6067,2.6105,2.616,2.6196,2.6267,2.6322,2.6379,2.641,2.6424,2.6429,2.6437,2.6427,2.6411,2.6418,2.6358,2.6426,2.6426,2.6426,2.6426,2.6426,2.5773,2.5807,2.586,2.5913,2.5952,2.5993,2.603,2.6066,2.6114,2.6175,2.6194,2.6251,2.6301,2.6379,2.641,2.6455,2.6453,2.6466,2.6469,2.6471,2.647,2.6405,2.6466,2.6466,2.6466,2.6466,2.6466,0,2.5821,2.5855,2.5904,2.5967,2.6009,2.602,2.6071,2.6104,2.6154,2.62,2.6245,2.6308,2.6361,2.6406,2.646,2.6487,2.6495,2.65,2.6497,2.6504,2.6469,2.6455,2.6493,2.6493,2.6493,2.6493,2.6493,2.6493,2.585,2.5909,2.5933,2.6011,2.6045,2.6102,2.6129,2.6168,2.6204,2.6274,2.6318,2.6347,2.6392,2.645,2.6498,2.651,2.6528,2.6531,2.6544,2.651,2.6507,2.6503,2.6491,2.6535,2.6535,2.6575,2.6575,2.6576]},{"header":{"parameterUnit":"m.s-1","parameterCategory":1,"la1":30.2991,"la2":30.254,"lo1":-89.0895,"lo2":-89.0444,"dy":0.0017,"dx":0.0017,"nx":28,"ny":28,"refTime":"2023-08-25T21:00:00:Z","depth":0,"parameterNumber":3,"parameterNumberName":"V-component_of_WINDS"},"data":[0,0,0,0,0,0,0,0,0,0,0,0,0,0,0,0,0,0,0,0,0,0,0,0,0,0,0,0,0,0,0,0,0,0,0,0,0,0,0,0,0,0,0,0,0,0,0,0,0,0,0,0,0,0,0,0,0,0,3.7737,3.7737,0,3.7716,3.7716,3.7715,3.7642,3.764,3.7638,3.7637,3.7616,3.7617,3.7618,0,0,0,0,0,0,0,0,0,0,0,0,0,3.7715,3.7716,3.7737,3.7737,3.7737,3.7716,3.7716,3.7715,3.7642,3.764,3.7638,3.7636,3.7616,3.7617,3.7618,0,0,0,0,0,0,0,0,0,0,0,0,0,3.7713,3.7716,3.7737,3.7698,3.7694,3.7716,3.7716,3.7715,3.7642,3.764,3.7637,3.7635,3.7615,3.7617,3.7618,3.7678,0,0,3.7623,3.7623,0,0,0,0,0,0,0,0,3.7713,3.7714,3.7704,3.77,3.7696,3.7679,3.77,3.7703,3.7643,3.7662,3.7637,3.7634,3.7639,3.7638,3.764,3.7677,3.7676,3.7623,3.7624,3.7625,3.7625,0,0,0,0,0,0,0,3.7713,3.7714,3.7729,3.7704,3.7699,3.7681,3.7678,3.77,3.7665,3.766,3.7655,3.7653,3.7636,3.7639,3.7639,3.7675,3.7623,3.7624,3.7625,3.7626,3.7759,3.7761,0,0,0,0,0,0,3.7719,3.7715,3.773,3.7728,3.7699,3.7684,3.768,3.7687,3.7664,3.7658,3.7655,3.765,3.7637,3.7637,3.7638,3.7704,3.7625,3.7626,3.7627,3.7756,3.7759,3.7762,0,0,0,0,0,0,3.7719,3.7721,3.773,3.772,3.772,3.7687,3.7695,3.7688,3.769,3.7661,3.7654,3.7664,3.7635,3.7636,3.7668,3.7703,3.7627,3.7628,3.7753,3.7757,3.7761,3.7839,0,0,0,0,0,0,3.7718,3.7721,3.7743,3.7721,3.7721,3.7761,3.7697,3.7689,3.7693,3.7685,3.7667,3.7662,3.7633,3.7666,3.7669,3.7704,3.7629,3.775,3.7755,3.7759,3.7834,3.7846,3.7856,0,0,0,0,0,3.7718,3.7767,3.7745,3.7747,3.7748,3.7763,3.7763,3.7729,3.7696,3.7717,3.7699,3.7662,3.7699,3.767,3.7673,3.7708,3.7747,3.7753,3.7759,3.7829,3.7843,3.7856,0,0,0,0,0,0,3.7795,3.7763,3.7738,3.7782,3.7776,3.775,3.7777,3.7746,3.7749,3.7742,3.77,3.7697,3.7735,3.7725,3.7693,3.7764,3.7717,3.7724,3.7769,3.7782,3.7793,3.7794,3.763,0,0,0,0,0,3.7817,3.7832,3.7804,3.7845,3.7843,3.7811,3.7816,3.7791,3.7783,3.778,3.7763,3.7757,3.7767,3.7774,3.7782,3.7832,3.7827,3.7858,3.7869,3.7879,3.7885,3.7909,3.7922,3.7781,3.7781,3.7781,0,0,3.7863,3.7847,3.7859,3.786,3.7852,3.7868,3.7809,3.7829,3.784,3.7783,3.7811,3.78,3.779,3.7831,3.7848,3.7824,3.7922,3.7886,3.7894,3.7894,3.7916,3.793,3.7942,3.7785,3.7785,3.7784,0,0,3.7954,3.7944,3.7976,3.7969,3.7958,3.7936,3.7944,3.7924,3.7913,3.7941,3.7898,3.7912,3.793,3.7925,3.7924,3.8013,3.7979,3.8017,3.8075,3.8099,3.811,3.812,3.815,3.8162,3.8024,3.8024,3.8024,0,3.8012,3.8034,3.7997,3.8019,3.802,3.7969,3.8001,3.7996,3.7989,3.799,3.7963,3.7985,3.7975,3.8013,3.8035,3.8037,3.8044,3.8018,3.8112,3.8121,3.813,3.8158,3.817,3.8028,3.8028,3.8027,3.8027,0,3.8105,3.8122,3.8149,3.8142,3.8146,3.8174,3.8141,3.815,3.8124,3.8105,3.8134,3.8121,3.8124,3.8132,3.8107,3.8167,3.8152,3.8119,3.8071,3.8148,3.8174,3.8185,3.8035,3.8033,3.8032,3.8031,0,0,3.8243,3.8215,3.8225,3.8221,3.8204,3.8216,3.8242,3.8244,3.8252,3.8249,3.8268,3.8285,3.8254,3.8254,3.8229,3.825,3.832,3.8215,3.8214,3.8233,3.8383,3.8407,3.842,3.8298,3.83,3.8302,3.8383,0,3.8328,3.8368,3.8336,3.8382,3.8396,3.8347,3.8369,3.8361,3.8345,3.8354,3.8336,3.8348,3.8307,3.8306,3.8326,3.8307,3.8349,3.8301,3.8315,3.8316,3.8317,3.8433,3.8458,3.8536,3.8393,3.8395,3.8396,0,3.8433,3.8433,3.848,3.8459,3.8464,3.8484,3.8483,3.8494,3.8484,3.847,3.847,3.8439,3.8462,3.8416,3.8446,3.8414,3.8418,3.841,3.8412,3.8411,3.836,3.8434,3.856,3.8571,3.8412,3.8411,3.841,0,3.8526,3.8539,3.8568,3.8566,3.8543,3.8558,3.855,3.8538,3.8541,3.8541,3.8543,3.8546,3.8547,3.8551,3.8521,3.849,3.8555,3.8507,3.8544,3.8545,3.8558,3.8558,3.8686,3.8564,3.8564,3.8564,3.8564,0,3.8624,3.8654,3.861,3.8628,3.866,3.8623,3.8656,3.8643,3.8632,3.8647,3.8606,3.8621,3.8581,3.8592,3.8569,3.8597,3.8599,3.8588,3.8581,3.859,3.8592,3.8591,3.8584,3.8567,3.8566,3.8566,3.8565,0,3.8733,3.8705,3.8733,3.871,3.8704,3.8729,3.8709,3.8724,3.8705,3.8724,3.8726,3.8696,3.8707,3.8678,3.8684,3.8668,3.8709,3.8694,3.8712,3.8707,3.8745,3.8741,3.8876,3.8891,3.8761,3.8763,3.8764,0,3.8796,3.8818,3.8797,3.8803,3.8796,3.8808,3.881,3.8775,3.878,3.877,3.8787,3.8794,3.8797,3.8816,3.8795,3.8799,3.8783,3.883,3.8784,3.8792,3.8782,3.878,3.8782,3.8839,3.8841,3.8842,3.8843,0,3.8911,3.8895,3.8901,3.8902,3.8906,3.8905,3.8902,3.891,3.8871,3.8879,3.8888,3.8891,3.8897,3.8904,3.8903,3.8895,3.8863,3.8858,3.8867,3.8876,3.8884,3.8879,3.8736,3.8855,3.8854,3.8853,3.8852,3.8852,3.8998,3.9014,3.9001,3.9009,3.9002,3.9,3.9013,3.8995,3.9002,3.9003,3.8982,3.8996,3.8985,3.8981,3.8976,3.8987,3.8965,3.8978,3.8981,3.8984,3.899,3.8884,3.8987,3.8986,3.8986,3.8986,3.8985,0,3.9108,3.9098,3.9105,3.91,3.9106,3.9075,3.907,3.9077,3.9089,3.9082,3.9086,3.9096,3.9103,3.9083,3.9086,3.9098,3.9084,3.91,3.9098,3.9096,3.9009,3.9001,3.9112,3.9112,3.9112,3.9112,3.9112,3.9112,3.9167,3.9193,3.9176,3.9199,3.9188,3.92,3.9199,3.9197,3.919,3.9204,3.9209,3.9195,3.9183,3.9185,3.919,3.9183,3.9186,3.9208,3.9196,3.9115,3.9103,3.9091,3.9082,3.9209,3.9209,3.9282,3.9283,3.9283]}]]